This is the latest recevied weather packets stored in our database for station/object F5OZP-13. If no packets are shown the sender has not sent any weather packets the latest 10 day(s).
| Time | Temp. | Humidity | Pressure | Rain* | Wind** | Luminosity | Snow |
|---|---|---|---|---|---|---|---|
| 1777989090 | 18.33° C | 99% | 1014.7 hPa | - | - | 38 W/m² | - |
| 1777988793 | 18.33° C | 99% | 1014.8 hPa | - | - | 42 W/m² | - |
| 1777988476 | 19.44° C | 99% | 1014.8 hPa | - | - | 41 W/m² | - |
| 1777988168 | 19.44° C | 99% | 1014.7 hPa | - | - | 44 W/m² | - |
| 1777987860 | 18.33° C | 99% | 1014.8 hPa | - | - | 43 W/m² | - |
| 1777987552 | 17.22° C | 99% | 1014.9 hPa | - | - | 47 W/m² | - |
| 1777987244 | 17.78° C | 99% | 1014.8 hPa | - | - | 45 W/m² | - |
| 1777986944 | 18.89° C | 99% | 1014.9 hPa | - | - | 14 W/m² | - |
| 1777986628 | 17.78° C | 99% | 1015 hPa | - | - | 41 W/m² | - |
| 1777986324 | 17.78° C | 99% | 1015 hPa | - | - | 34 W/m² | - |
| 1777986016 | 18.33° C | 99% | 1015.1 hPa | - | - | 0 W/m² | - |
| 1777985708 | 17.78° C | 99% | 1015.1 hPa | - | - | 9 W/m² | - |
| 1777985400 | 17.78° C | 99% | 1015.1 hPa | - | - | 17 W/m² | - |
| 1777985100 | 18.33° C | 99% | 1015.2 hPa | - | - | 3 W/m² | - |
| 1777984783 | 20.56° C | 99% | 1015.1 hPa | - | - | 1 W/m² | - |
| 1777984475 | 18.89° C | 99% | 1015.1 hPa | - | - | 51 W/m² | - |
| 1777984167 | 19.44° C | 99% | 1015.1 hPa | - | - | 17 W/m² | - |
| 1777983859 | 17.78° C | 99% | 1015.1 hPa | - | - | 11 W/m² | - |
| 1777983551 | 16.11° C | 99% | 1015.1 hPa | - | - | 47 W/m² | - |
| 1777983251 | 17.22° C | 99% | 1015.2 hPa | - | - | 14 W/m² | - |
| 1777982940 | 16.11° C | 99% | 1015.3 hPa | - | - | 34 W/m² | - |
| 1777982939 | 16.11° C | 99% | 1015.3 hPa | - | - | 34 W/m² | - |
| 1777982631 | 15.56° C | 99% | 1015.3 hPa | - | - | 1 W/m² | - |
| 1777982322 | 15° C | 99% | 1015.4 hPa | - | - | 0 W/m² | - |
| 1777982014 | 14.44° C | 99% | 1015.5 hPa | - | - | 0 W/m² | - |
* Rain since midnight (hover to see other rain measurements)
** Current wind speed in m/s (hover to see current wind gust speed)